Погода в Пскове

Погода в Пскове : погода сейчас, прогноз погоды и архив. Всё, что Вы хотите узнать о погоде в Пскове!

Хотите узнать прогноз погоды в Пскове? Тогда Вам сюда: Погода в Пскове

Поиск расширенной информации на нашем сайте:

Другие новости

Новости СМИ2

Главная страница сайта

Новости сайта

03.07.2017

Напоминаем, что на нашем специализированном сайте Метеоцентр.Азия вы можете получить высокодетализированные автоматические прогнозы погоды по пунктам России, СНГ и мира в авиационном формате (включающие направление и скорость ветра, видимость, явления погоды, количество и форму облачности, нижнюю и верхнюю границу облачности).


Погода в Пскове - сегодня

Время (UTC), дата Ветер
(°,м/с) 
Видим.   Явления Облачность Т
(°С)
Тd
(°С)
f(%) Тe
(°С)
Pmin
(гПа)
dP
(гПа)
Po
(мм)
O2
(г/м3)
Тmin Tmax R s Состояние
почвы
18 17.11.17 230 (ЮЗ) 20000 м  {дождь}  6/6 600 м 
[Sc]
+3 +1.7 91 +2  1011.4  0.3  754  300    +4.6     
21 17.11.17 220 (ЮЗ) 20000 м    ясно 
+1.5 +0.4 92 +1  1011.9  0.4  755  302           
00 18.11.17 220 (ЮЗ) 20000 м    10/10 600 м 
[Sc]
+2.2 +1 92 +2  1012.2  0.3  755  302           
03 18.11.17 200 (Ю) 20000 м    10/10 600 м 
[Sc]
+2.7 +0.9 88 +2  1011.9  -0.3  755  301  +1.4         
06 18.11.17 190 (Ю) 20000 м    10/10 600 м 
[Sc]
+2.5 +0.8 89 +2  1010.8  -1.1  754  301  +1.4         
09 18.11.17 210 (ЮЗ) 20000 м    8/6 600 м верхняя 
[Sc|Ci fib]
+3.7 +1.3 84 +2  1010.3  -0.5  754  299           
12 18.11.17 200 (Ю) 20000 м    10/10 600 м 
[Sc]
+4.3 +1.3 81 +4  1008.7  -1.5  752  298           
15 18.11.17 190 (Ю) 20000 м    10/10 600 м 
[Sc]
+4.1 +1.1 81 +4  1007.7  -1  752  298           
18 18.11.17 190 (Ю) 20000 м    10/10 600 м 
[Sc]
+4.1 +0.5 77 +4  1006.2  -1.5  751  298    +4.3       
21 18.11.17 180 (Ю) 20000 м    10/10 600 м 
[Sc]
+3.2 +0.3 81 +3  1005.4  -0.8  750  299           
00 19.11.17 180 (Ю) 20000 м    10/10 600 м 
[Sc]
+2.9 +0 81 +2  1004.4  -1  749  299           
03 19.11.17 170 (Ю) 20000 м    8/8 600 м 
[Sc]
+1.3 -1 85 -1  1003  -1.4  748  300  +1.3         
06 19.11.17 160 (Ю) 20000 м    9/8 600 м средняя 
[Sc diur, vesp|Ac trans]
+0.4 -1.6 86 -1  1002.6  -0.5  748  301  +0.3         
09 19.11.17 170 (Ю) 20000 м    10/8 600 м средняя 
[Sc diur, vesp|Ac trans]
+1.3 -1.6 81 -1  1002.3  -0.2  748  300           
12 19.11.17 160 (Ю) 20000 м    10/10 600 м 
[St]
+1.7 -1.9 77 1001.6  -0.7  747  299           
15 19.11.17 150 (ЮВ) 4000 м  слаб. ливневой снег  10/10 600 м кучево-дожд. 
[Cb cap]
+0.2 -0.6 94 -2  1001.6  747  301      0.0     
18 19.11.17 150 (ЮВ) 4000 м  слаб. ливневой снег  10/10 600 м кучево-дожд. 
[Cb cap]
+0.3 -0.4 95 1001.2  -0.4  747  301    +1.7  0.1     
21 19.11.17 170 (Ю) 4000 м  слаб. ливневой снег  10/10 600 м кучево-дожд. 
[Cb cap]
+0.5 -0.1 96 1001.7  0.5  747  300           
00 20.11.17 170 (Ю) 10 км  {ливн. осадки}  10/10 600 м кучево-дожд. 
[Cb cap]
+0.5 -0 96 1001.9  0.2  747  301           
03 20.11.17 160 (Ю) 10 км    10/10 600 м кучево-дожд. 
[Cb cap]
+0.4 -0.1 96 1002.1  0.2  747  301  +0.2    0.1     
06 20.11.17 170 (Ю) 10 км  слаб. дождь{ливн. осадки}  10/10 600 м 
[Frnb|Ns]
+1.4 +0.8 96 +1  1002.9  0.8  748  300  +0.2       
09 20.11.17 190 (Ю) 20000 м  в посл. час дождь  10/10 600 м 
[Frnb|Ns]
+2.7 +2 95 +3  1004.1  1.2  749  299           
12 20.11.17 190 (Ю) 20000 м  {дождь}  10/10 600 м 
[Sc diur, vesp]
+3 +2.2 94 +4  1004.6  0.5  749  298           
15 20.11.17 190 (Ю) 10 км  слаб. дождь  10/10 600 м 
[Sc diur, vesp]
+2.4 +1.7 95 +2  1005.6  750  299         
18 20.11.17 180 (Ю) 20000 м  {дождь}  10/10 600 м 
[Sc diur, vesp]
+1.7 +1.2 96 +2  1006.5  0.9  751  300    +3.2     
Время (UTC), дата Ветер
(°,м/с) 
Видим.   Явления Облачность Т
(°С)
Тd
(°С)
f(%) Тe
(°С)
Pmin
(гПа)
dP
(гПа)
Po
(мм)
O2
(г/м3)
Тmin Tmax R s Состояние
почвы

Для получения пояснительной информации подведите курсор к названию столбца.

ПОГОДА в Пскове - архив

Всё, что Вы хотите узнать о погоде в Пскове - удобно и подробно!

Выберите нужную дату (начиная с 1 января 2015* года) и нажмите кнопку "Найти".
Будут отображены архивные сводки погоды по пункту Псков, начиная с указанной даты.


Отображать данные в формате CSV (для использования в таблицах Excel)


Внимание! Наш архив погоды предназначен исключительно для личного некоммерческого использования в познавательных целях. Если Вам необходимы официальные справки о состоянии погоды (для производственных, юридических, коммерческих и т.п. целей), обращайтесь в органы Росгидромета.

*Примечание: данная дата относится к архиву по метеостанциям СССР (Россия, СНГ, Балтия).
Архив по метеостанциям Зарубежной Европы и Азии (кроме Китая) хранится 10 дней, по другим регионам земного шара (Китай, Африка, Америка, Австралия, Океания) - 1 день.

Псков - район местоположения метеостанции


Название, широта, долгота, высота метеостанции:
Псков (город) 57.8°ш. 28.5°д. 44 м над ур. моря [Российская Федерация]

Дополнительная информация

В oтличие oт бoльшинства пoгoдных сайтoв мы публикуем пoдрoбную метеoинфoрмацию в детальнoм прoфессиoнальнoм фoрмате.

Характеристики температуры и влажнoсти вoздуха измеряются на высoте 2 м в тени вдали oт зданий и деревьев.
Скoрoсть ветра измеряется на высoте 10 м (на урoвне рoста челoвека скoрoсть ветра ниже в 1.5-2 раза). Если метеoстанция нахoдится в гoрoде или в лесу, тo скoрoсть ветра занижена на 2-4 м/с пo сравнению с oткрытым местoм. Скoрoсть ветра над акватoриями крупных рек и oзёр, а также на вершинах хoлмoв на 2-5 м/с выше, чем в oбычных услoвиях.
Атмoсфернoе давление в разных тoчках местнoсти мoжет значительнo oтличаться oт давления на метеoстанции, в зависимoсти oт услoвий рельефа (при пoдъёме на 10 м давление пoнижается примернo на 1 мм рт.ст.).